GFSNW_850_thetae_003.txt.gz
Theta_e
296 297 299 300 301 302 303 303 306 309 307 309 309 309 307 309 311 312 312 312 313 312 309 309 307 308 308 308 308 311 310 311 311 310 310 309 311 310 310 313 307 309 315 316
296 297 299 299 301 301 303 305 310 308 308 309 309 309 310 311 313 313 314 313 312 312 311 310 308 308 308 309 309 310 310 314 312 316 313 311 314 311 310 310 312 310 310 310
296 297 298 299 301 303 306 308 308 308 308 310 308 309 310 311 312 312 313 314 312 312 313 310 311 309 310 309 310 311 310 313 314 314 316 314 313 314 311 310 312 314 315 316
296 297 298 300 301 304 307 307 310 306 310 310 308 309 312 312 313 313 313 314 314 314 314 313 311 311 311 311 311 311 312 313 313 313 313 314 315 315 313 313 312 313 313 315
296 297 298 299 301 305 309 310 311 308 308 311 310 310 312 314 313 314 315 315 314 314 315 312 310 311 311 312 313 312 313 314 311 314 313 313 314 314 317 314 315 314 317 316
296 296 298 300 301 301 304 305 312 311 309 312 311 311 312 314 314 314 314 313 314 315 314 312 312 312 314 313 315 314 311 311 314 317 319 316 316 315 317 317 317 317 318 317
295 296 298 300 301 302 303 304 306 313 312 311 312 313 312 312 312 313 314 313 314 314 314 315 313 314 314 314 314 312 311 311 313 318 320 324 318 319 318 318 316 315 315 316
295 296 298 300 301 303 303 305 308 313 314 311 312 313 313 312 312 313 312 313 314 314 314 316 317 317 317 315 311 313 312 313 319 322 319 317 317 320 320 319 318 316 317 315
295 296 297 299 301 303 304 310 311 312 313 313 313 313 312 313 312 312 312 313 314 314 315 317 320 316 314 314 316 310 309 311 317 319 318 319 314 314 314 316 320 316 316 316
295 296 297 299 300 302 304 308 311 311 311 313 313 312 312 311 310 309 311 312 313 312 315 318 318 316 314 316 317 318 317 316 316 318 319 315 313 312 312 320 317 309 314 313
295 296 297 298 299 301 303 308 311 312 312 312 312 312 312 311 310 312 312 312 313 314 316 318 316 315 313 315 313 316 316 318 315 314 318 315 312 312 314 311 309 310 310 308
295 295 296 298 298 301 302 305 310 311 311 312 312 312 311 312 312 311 311 312 313 314 316 315 316 316 312 314 315 312 317 315 315 314 314 311 311 312 312 311 310 308 310 310
294 295 296 297 297 299 301 304 309 311 311 310 312 312 312 312 312 311 311 311 311 314 314 314 314 313 312 316 314 314 314 312 315 316 313 312 311 312 312 312 311 309 310 311
294 295 295 296 297 298 300 303 307 309 311 311 311 312 311 312 312 312 311 312 312 312 314 315 310 313 309 311 311 313 312 313 312 312 310 309 311 312 312 311 311 310 309 310
294 291 293 296 297 298 300 305 309 310 311 313 313 312 312 312 311 312 312 311 311 313 316 317 316 310 311 307 308 309 307 313 314 315 311 312 311 312 311 311 310 309 309 306
290 290 294 296 297 297 302 308 309 310 312 312 314 313 312 311 311 311 312 312 311 312 314 316 316 315 315 310 311 311 312 313 315 313 312 310 311 311 310 310 309 308 309 307
293 293 293 294 295 296 298 306 309 311 311 312 310 311 312 312 311 312 312 312 313 313 315 315 315 315 315 313 312 311 313 313 312 313 312 307 309 309 309 310 308 307 306 303
292 291 292 294 296 297 301 308 308 309 311 311 309 309 311 312 313 313 313 312 313 314 314 313 313 311 311 314 310 312 311 310 310 310 311 311 309 308 308 308 307 304 302 301
293 295 299 299 299 300 304 307 310 310 311 310 308 310 311 311 313 313 314 314 315 313 313 312 311 311 312 312 310 310 310 310 308 308 309 308 308 307 306 306 304 303 302 301
293 297 299 302 302 304 308 309 309 310 311 311 311 309 311 311 311 309 311 309 312 311 312 309 311 312 313 314 314 314 312 310 309 307 302 303 304 305 305 304 303 303 301 299
293 294 295 296 300 305 309 306 309 309 308 310 309 309 309 310 310 311 308 307 305 309 307 312 310 312 308 313 315 314 312 310 310 310 310 308 309 307 305 303 303 301 299 298
294 294 294 295 299 302 303 304 305 309 310 308 310 308 310 310 309 308 306 307 306 312 304 309 311 308 309 309 311 314 311 310 309 309 309 308 307 306 305 302 300 299 298 296
294 295 295 295 298 303 306 307 308 307 306 307 307 304 308 307 307 302 304 309 310 300 305 307 306 302 306 307 309 310 309 308 308 308 307 307 306 304 303 300 299 298 296 295
293 295 296 297 303 303 303 303 298 304 308 308 308 304 305 305 302 301 302 304 302 304 305 304 297 303 305 307 307 308 306 307 308 307 306 305 304 301 300 300 298 296 295 294
294 296 298 301 300 300 301 301 300 303 307 308 306 304 305 303 303 299 302 304 305 303 305 298 302 303 305 306 305 305 305 306 306 306 304 303 302 300 298 297 295 294 294 294
294 295 297 299 300 301 300 301 300 304 306 309 307 303 303 305 304 298 298 301 303 305 297 301 303 304 304 305 304 304 305 305 304 303 302 301 299 298 296 294 294 294 294 294
295 298 298 297 298 299 300 301 302 305 306 306 302 306 305 295 296 296 295 300 302 299 301 303 303 304 304 304 303 303 303 303 302 301 300 299 297 295 294 294 293 293 293 292

GFSNW_850_thetae_006.txt.gz
Theta_e
297 297 298 299 300 301 302 302 306 308 306 307 307 306 305 307 311 311 313 311 312 311 309 309 306 307 307 308 308 309 309 312 310 309 308 309 309 309 309 311 306 307 304 309
297 297 298 298 300 301 302 302 308 309 306 309 309 307 308 310 312 312 312 312 312 312 311 310 307 307 307 308 309 309 309 312 313 311 310 310 312 310 309 309 310 307 307 308
296 296 297 299 301 301 305 303 309 308 307 307 309 309 309 310 311 312 313 313 311 312 313 309 309 308 309 308 309 310 310 313 312 312 314 312 313 311 310 310 311 310 310 310
296 296 297 299 301 303 306 307 306 305 306 309 308 309 309 310 311 312 313 314 313 314 316 313 311 309 309 309 310 311 311 312 312 312 311 311 314 313 312 311 310 310 309 310
296 296 297 300 301 303 307 308 308 306 307 308 306 307 310 310 311 313 313 312 313 313 315 313 310 311 311 312 310 311 311 312 311 313 313 312 314 314 314 314 311 310 310 310
296 296 297 299 301 302 301 303 306 308 309 310 307 308 310 310 313 311 312 313 314 314 314 313 313 312 311 312 313 312 311 310 314 315 316 317 315 314 313 314 313 311 312 311
296 296 297 299 301 302 302 302 305 310 311 310 309 310 309 312 313 312 312 313 314 314 314 314 313 312 310 311 312 313 311 310 312 315 316 324 318 315 312 313 314 312 311 314
295 295 297 299 300 302 303 304 305 311 311 310 309 312 311 311 312 312 312 312 313 314 314 315 316 315 315 314 313 313 312 311 316 319 320 319 318 319 314 314 316 313 313 314
296 295 296 298 299 301 304 308 308 309 311 310 311 312 311 313 312 312 312 313 313 313 315 315 318 314 315 313 315 309 312 312 315 317 320 317 313 317 316 316 321 315 314 314
296 295 296 297 299 301 303 307 308 310 312 311 311 312 312 312 311 310 310 311 311 312 315 317 318 317 313 314 317 317 315 313 316 316 319 314 312 310 316 322 319 309 315 315
295 294 295 296 298 300 302 305 307 311 312 312 312 312 311 311 310 311 311 312 312 313 316 317 317 317 312 313 311 313 314 315 315 313 317 314 311 311 315 311 310 309 312 313
295 294 295 295 297 299 301 304 309 311 311 311 312 312 312 312 312 311 311 312 313 313 316 313 316 316 310 311 313 311 315 313 314 313 313 309 311 310 312 310 309 309 309 310
294 295 295 291 296 298 299 301 305 309 309 311 311 312 312 312 311 312 311 311 311 312 314 313 312 315 310 314 312 313 312 310 314 314 312 312 311 312 310 310 309 309 310 310
295 295 291 290 294 297 298 299 304 307 310 311 310 311 311 312 312 312 311 311 312 312 312 315 313 313 309 311 311 312 312 312 312 312 310 309 311 311 310 309 308 308 308 309
290 290 292 292 294 296 297 301 307 308 310 312 313 312 312 312 312 312 311 311 311 311 314 315 316 309 309 306 307 309 308 313 315 315 312 311 310 311 309 310 309 308 309 306
293 293 293 293 292 294 296 306 306 308 308 311 313 313 312 312 311 311 311 311 311 311 314 316 316 314 312 309 310 310 311 313 314 312 312 310 310 310 309 310 308 308 309 309
293 293 293 293 291 293 296 302 306 308 309 311 309 308 312 312 311 311 311 312 311 311 312 315 315 315 315 314 315 312 313 313 311 312 311 308 309 309 309 309 308 308 308 307
293 293 293 294 293 294 297 301 303 305 309 311 309 309 310 311 311 312 312 312 313 313 313 313 313 312 312 314 311 312 311 311 310 310 310 310 311 309 308 308 307 306 304 302
292 294 298 299 299 298 301 304 308 308 310 309 309 309 309 311 312 312 313 313 314 313 313 313 311 312 313 313 311 311 311 310 309 308 309 308 309 307 306 306 305 304 301 300
293 296 298 300 299 300 303 308 308 309 311 311 310 309 310 310 311 310 311 310 311 311 312 309 311 313 313 315 314 314 313 311 309 306 302 304 304 306 305 305 304 303 302 301
292 293 295 295 299 301 305 307 308 309 308 309 310 309 309 310 309 311 308 307 305 311 307 312 310 312 309 311 314 314 314 312 310 311 311 309 309 307 305 304 303 302 301 300
293 294 294 296 299 300 302 304 305 308 307 307 309 307 309 309 310 308 306 305 306 311 302 309 311 306 308 308 310 312 313 311 310 310 310 309 308 308 306 304 303 302 300 298
294 295 295 295 297 302 306 307 307 308 305 308 307 304 308 307 308 303 304 309 309 300 306 309 305 303 306 307 309 311 310 309 309 309 307 307 307 306 305 303 302 299 298 296
294 293 293 297 300 302 303 302 302 301 303 306 307 304 301 305 301 302 308 305 303 306 306 304 297 302 303 305 307 309 308 307 308 307 306 306 306 304 303 302 299 298 296 294
294 294 295 297 300 299 300 300 300 302 304 305 306 305 305 301 299 299 303 304 306 304 304 298 302 302 303 305 306 306 306 305 305 305 305 304 304 303 300 298 298 296 295 294
294 294 293 298 296 295 299 300 300 303 305 306 305 303 305 306 300 300 302 301 303 304 296 303 303 303 304 305 305 304 304 305 305 304 303 302 302 300 299 297 295 294 294 294
294 297 296 296 295 298 298 298 301 301 304 305 302 306 308 296 297 297 296 301 301 301 302 302 303 303 304 304 303 303 303 303 303 302 301 301 299 298 297 295 294 294 294 293

GFSNW_850_thetae_012.txt.gz
Theta_e
296 298 297 298 300 302 303 302 304 304 304 304 304 310 307 310 310 312 312 311 311 311 311 312 312 312 310 308 311 312 311 311 312 311 310 310 310 311 310 313 313 314 313 313
297 298 297 299 300 303 304 301 304 305 305 310 310 307 310 312 312 313 313 313 312 310 311 312 311 310 309 308 311 312 311 312 312 314 312 310 310 311 311 311 312 313 314 312
297 297 297 299 301 303 304 302 307 304 305 308 308 310 311 313 312 313 312 312 312 312 312 311 311 311 310 308 309 309 310 312 313 315 316 314 315 312 311 312 314 313 313 312
297 297 295 298 301 303 304 305 307 306 309 309 309 310 311 313 313 312 313 312 312 313 313 312 312 311 310 309 309 310 311 313 312 311 311 312 313 313 313 312 312 313 313 312
296 297 295 298 300 303 303 304 306 307 308 308 309 310 310 311 313 313 313 314 313 313 313 313 314 313 312 313 311 311 311 313 313 313 312 313 314 314 314 314 313 313 312 313
296 295 293 298 299 302 302 303 305 307 309 309 310 311 310 311 312 312 312 312 313 313 313 312 313 312 312 312 312 312 312 313 313 315 314 316 318 316 316 315 313 313 314 313
296 295 293 297 297 300 302 302 304 308 309 309 309 309 310 310 311 314 312 312 313 313 313 313 313 313 313 314 314 312 313 312 312 315 316 324 320 316 316 316 314 313 312 312
295 295 294 296 294 297 302 304 304 307 310 309 308 309 310 311 312 313 312 312 312 312 313 314 313 314 315 314 314 315 313 314 316 319 320 318 319 315 318 316 317 314 314 313
295 295 294 296 292 295 302 304 304 306 310 310 308 310 309 311 312 312 312 312 312 312 314 314 315 318 315 316 314 313 313 313 315 318 319 323 319 314 313 314 320 313 312 313
295 295 294 296 291 293 296 301 302 304 307 311 309 311 311 312 312 313 311 311 312 312 314 315 317 316 314 317 317 316 314 314 316 317 318 318 315 312 315 320 318 311 311 313
292 295 294 293 291 291 295 297 301 301 303 310 309 309 311 311 312 313 311 312 312 313 313 315 315 316 315 316 315 317 317 318 317 317 316 321 312 314 317 315 312 309 311 312
290 293 293 291 292 292 293 297 299 301 301 310 310 311 311 311 311 311 311 313 312 312 313 314 314 315 315 315 318 312 317 317 318 318 319 314 312 314 312 309 309 309 310 311
291 293 293 294 293 291 291 292 296 302 304 310 311 311 311 312 312 312 313 311 312 312 312 313 313 315 313 318 317 315 314 312 317 317 317 315 314 312 310 309 307 307 308 309
294 293 293 293 294 294 293 291 293 296 301 307 310 311 311 312 312 312 312 312 311 312 312 312 312 314 313 317 314 315 316 313 317 317 316 315 312 310 309 308 306 306 308 308
294 294 294 293 294 294 293 291 295 299 301 306 311 311 311 311 311 312 312 311 311 311 312 312 313 314 310 311 311 315 313 318 318 319 315 315 313 309 308 307 306 304 306 304
294 294 293 293 293 294 294 300 299 301 301 302 312 311 311 311 312 311 311 311 311 311 311 312 312 313 312 317 318 315 313 313 314 317 313 311 309 308 308 307 306 304 306 306
293 293 293 293 294 294 294 298 300 300 303 303 310 309 311 311 310 310 310 310 310 311 311 311 312 313 313 314 317 316 315 314 313 312 313 309 309 308 307 308 306 305 305 305
293 293 293 296 296 295 294 291 294 301 302 306 309 310 309 310 311 311 310 311 311 311 311 312 313 312 312 316 316 316 315 313 313 312 310 310 310 308 306 306 306 305 305 304
292 293 296 297 296 296 297 297 299 300 302 307 309 310 312 311 311 311 312 312 314 312 313 313 312 314 314 316 316 315 315 313 312 309 308 309 308 307 306 305 305 306 305 304
293 296 297 297 296 297 298 300 301 303 305 307 310 308 311 309 311 312 311 310 313 312 312 309 310 313 314 314 314 315 314 313 311 307 305 306 305 305 305 306 306 306 305 302
293 294 295 297 299 300 300 300 303 306 308 309 309 308 309 309 311 313 309 311 307 313 311 311 314 315 312 310 309 310 313 314 312 310 310 310 310 307 305 305 304 304 301 299
293 294 295 297 299 300 302 303 305 307 309 308 309 308 307 308 309 310 307 309 308 313 304 309 313 312 308 306 306 308 310 313 313 309 308 308 308 308 306 305 304 301 300 299
294 294 295 297 299 304 304 304 306 308 302 304 306 307 307 307 307 306 306 309 311 303 308 310 311 307 305 303 304 307 309 311 310 309 308 307 307 307 307 306 302 300 300 299
293 294 296 300 301 301 301 301 301 301 301 302 305 305 305 305 306 305 309 307 305 308 309 310 308 304 302 303 304 306 306 307 308 308 308 307 306 305 305 303 301 300 300 299
294 294 297 298 297 298 299 298 299 300 301 302 304 304 304 304 305 303 306 307 308 308 310 308 303 302 303 304 305 306 305 305 306 307 306 305 305 305 303 301 300 300 299 297
294 294 296 296 295 295 296 296 297 300 301 304 304 304 306 308 306 305 307 307 309 310 306 304 303 303 303 304 305 305 305 305 305 304 304 304 304 304 302 300 300 298 297 295
294 296 295 296 294 293 295 295 296 297 300 303 302 306 310 300 304 304 303 306 306 299 300 300 301 302 303 304 305 305 305 304 304 304 302 302 302 301 300 299 297 296 294 294

GFSNW_850_thetae_015.txt.gz
Theta_e
298 298 297 299 301 304 304 303 304 304 303 307 307 311 310 310 310 312 312 312 313 313 312 313 313 314 312 311 312 313 312 312 313 312 311 311 311 312 311 314 314 314 315 315
297 297 297 299 302 304 305 303 304 304 306 310 309 308 311 311 312 314 313 313 312 312 313 314 313 313 310 309 312 313 312 313 314 316 314 312 312 312 312 313 314 316 317 315
296 297 297 298 303 304 304 303 306 305 306 309 310 312 313 313 313 313 313 313 312 313 313 313 313 312 311 310 311 310 311 313 315 315 318 314 315 313 313 314 316 315 315 314
297 297 296 298 302 304 305 306 307 307 310 310 310 312 312 313 313 313 313 313 313 313 313 313 313 313 312 311 310 310 311 315 313 312 312 313 314 314 314 314 314 315 315 314
297 296 296 298 299 304 305 304 306 308 309 309 310 310 313 313 313 313 313 314 313 313 314 314 314 313 313 313 311 311 311 314 313 312 312 313 315 315 316 317 316 315 315 315
297 296 296 297 297 302 303 304 306 306 309 310 311 312 312 312 313 313 313 314 314 314 314 313 313 313 313 313 313 312 312 312 313 315 314 315 319 319 318 317 316 315 317 315
295 296 296 296 293 300 303 304 304 307 310 311 310 310 311 311 313 314 313 313 313 314 314 313 314 314 313 314 313 312 313 311 314 317 316 324 320 316 317 317 317 316 315 315
294 296 296 297 291 296 303 303 304 306 311 310 310 310 312 312 311 313 313 313 313 313 313 315 314 316 315 315 314 314 313 313 317 318 317 317 321 318 318 318 318 315 314 316
289 293 295 294 292 291 298 302 304 305 308 311 310 311 311 313 313 313 312 312 313 313 314 315 315 318 316 317 315 313 314 312 316 317 319 321 320 318 316 316 321 314 313 317
288 288 289 291 291 292 292 299 302 304 306 310 311 310 311 311 312 313 313 313 313 313 315 316 315 316 315 317 318 316 316 315 316 316 318 317 317 316 315 322 319 314 311 315
289 290 289 294 294 292 291 296 300 300 301 307 310 310 311 312 312 314 313 314 313 314 315 315 315 316 316 316 316 317 317 317 316 315 318 320 315 316 319 317 314 313 312 314
290 292 294 294 294 294 295 295 293 296 299 305 310 311 311 312 313 314 312 314 313 313 313 314 314 316 315 316 318 315 318 317 319 318 320 318 316 315 315 313 312 312 311 312
294 294 294 294 294 294 294 295 294 295 300 306 311 311 311 310 311 311 313 313 313 313 313 313 314 316 315 318 317 317 316 316 317 318 319 318 317 315 312 309 309 309 310 309
295 295 295 294 294 293 294 295 295 293 299 303 311 311 311 311 311 311 312 313 312 312 312 312 312 313 313 316 316 317 318 315 318 319 318 318 315 312 310 308 307 307 308 306
294 294 294 294 294 293 294 294 295 293 298 303 310 310 311 311 311 311 311 312 313 312 312 312 313 312 313 313 314 315 316 317 319 319 318 317 315 310 308 308 306 305 304 303
294 294 294 294 293 293 294 297 298 299 299 300 312 310 311 311 311 311 311 311 312 311 312 312 312 312 313 315 316 315 315 315 316 317 313 312 310 309 308 306 305 304 304 303
294 292 293 294 294 294 295 297 298 298 299 301 309 311 310 311 311 311 310 311 311 311 311 311 312 312 313 314 315 315 316 316 315 314 312 312 310 310 308 306 304 304 303 302
292 293 293 295 296 295 295 294 295 297 300 301 309 311 311 310 311 311 310 311 311 311 312 311 312 312 313 315 314 314 315 315 315 313 311 311 310 308 306 306 304 304 302 302
293 295 296 296 295 297 297 296 296 299 300 303 310 312 313 310 311 312 311 312 314 312 313 313 312 314 315 314 315 316 316 314 315 311 309 309 308 306 306 305 302 303 301 300
295 296 297 297 296 297 297 297 300 300 302 304 310 309 312 311 311 312 313 312 313 314 314 310 312 313 313 313 314 314 314 312 312 308 305 306 305 305 305 304 303 302 303 302
294 295 296 297 298 299 299 300 300 303 307 308 310 310 311 309 312 313 311 312 309 314 312 312 315 315 314 310 308 307 307 311 312 312 310 310 309 308 306 303 302 303 304 303
295 294 296 298 299 299 302 304 302 307 310 309 310 310 309 309 309 312 309 311 310 313 307 310 312 314 309 307 304 306 308 308 308 311 310 309 308 308 306 304 304 304 302 301
294 294 295 297 300 304 306 306 306 307 302 302 305 308 308 308 308 309 309 310 311 306 310 311 312 311 306 303 303 305 307 307 306 308 309 308 307 306 306 306 305 304 300 299
294 295 300 300 303 301 301 301 302 300 301 301 303 305 307 306 309 309 310 309 307 309 310 312 313 305 302 302 303 305 305 306 305 306 307 307 306 304 304 305 306 302 299 299
295 295 300 299 298 298 298 298 299 300 300 301 304 305 305 306 307 307 307 308 309 309 312 312 304 300 300 301 302 304 304 305 306 305 305 305 305 304 303 303 301 300 300 299
294 294 297 297 297 299 298 297 298 299 299 302 303 304 308 308 309 306 308 308 311 311 304 300 299 299 300 300 301 302 303 303 304 304 304 303 303 303 302 300 299 299 299 298
294 296 296 297 295 296 297 296 297 297 300 303 302 306 309 303 307 307 308 309 305 299 298 297 298 298 299 300 301 302 302 301 302 303 302 302 302 302 301 299 298 298 298 296